• In Deutschland
  • Länderverzeichnis
  • Für 7 Tage
  • Wassertemperatur
  • Satellitenkarten
  • Wetterkarte
  • Widgets
  • user-avatar
    Anmelden

    Stündliche Wetter Vanadzor

    Heute, 19 August, Samstag

    Zeit Temperatur Niederschläge Wind Luftdruck Luftfeuchtigkeit
    00:00 +16°C° 0,3 mm 2 m/S 637 mmHg 84%
    01:00 +16°C° 0,2 mm 2 m/S 637 mmHg 85%
    02:00 +16°C° 0,2 mm 1 m/S 637 mmHg 86%
    03:00 +15°C° 0,2 mm 1 m/S 637 mmHg 86%
    04:00 +15°C° 0 mm 1 m/S 637 mmHg 86%
    05:00 +15°C° 0 mm 1 m/S 637 mmHg 86%
    06:00 +15°C° 0 mm 1 m/S 637 mmHg 86%
    07:00 +17°C° 0 mm 2 m/S 638 mmHg 76%
    08:00 +19°C° 0 mm 2 m/S 639 mmHg 67%
    09:00 +23°C° 0 mm 2 m/S 639 mmHg 57%
    10:00 +24°C° 0 mm 2 m/S 639 mmHg 53%
    11:00 +25°C° 0 mm 3 m/S 640 mmHg 49%
    12:00 +27°C° 0 mm 3 m/S 640 mmHg 45%
    13:00 +27°C° 0 mm 3 m/S 639 mmHg 44%
    14:00 +27°C° 0 mm 3 m/S 639 mmHg 43%
    15:00 +28°C° 0 mm 3 m/S 639 mmHg 42%
    16:00 +27°C° 0 mm 3 m/S 639 mmHg 46%
    17:00 +25°C° 0 mm 3 m/S 639 mmHg 51%
    18:00 +24°C° 0 mm 3 m/S 638 mmHg 55%
    19:00 +21°C° 0,1 mm 2 m/S 638 mmHg 60%
    20:00 +19°C° 0,1 mm 2 m/S 638 mmHg 65%
    21:00 +17°C° 0,1 mm 2 m/S 638 mmHg 70%
    22:00 +17°C° 0 mm 2 m/S 638 mmHg 69%
    23:00 +16°C° 0 mm 2 m/S 638 mmHg 68%

    Morgen, 20 August, Sonntag

    Zeit Temperatur Niederschläge Wind Luftdruck Luftfeuchtigkeit
    00:00 +15°C° 0 mm 2 m/S 638 mmHg 68%
    01:00 +15°C° 0 mm 2 m/S 638 mmHg 69%
    02:00 +14°C° 0 mm 2 m/S 637 mmHg 70%
    03:00 +14°C° 0 mm 2 m/S 637 mmHg 71%
    04:00 +14°C° 0 mm 2 m/S 637 mmHg 71%
    05:00 +14°C° 0 mm 2 m/S 637 mmHg 70%
    06:00 +14°C° 0 mm 2 m/S 637 mmHg 70%
    07:00 +17°C° 0 mm 2 m/S 638 mmHg 62%
    08:00 +19°C° 0 mm 2 m/S 639 mmHg 54%
    09:00 +23°C° 0 mm 2 m/S 639 mmHg 46%
    10:00 +24°C° 0 mm 2 m/S 639 mmHg 43%
    11:00 +26°C° 0 mm 3 m/S 639 mmHg 39%
    12:00 +27°C° 0 mm 3 m/S 639 mmHg 36%
    13:00 +27°C° 0 mm 3 m/S 639 mmHg 35%
    14:00 +28°C° 0 mm 3 m/S 639 mmHg 34%
    15:00 +28°C° 0 mm 3 m/S 639 mmHg 33%
    16:00 +27°C° 0 mm 3 m/S 638 mmHg 37%
    17:00 +25°C° 0 mm 3 m/S 638 mmHg 41%
    18:00 +24°C° 0 mm 3 m/S 637 mmHg 45%
    19:00 +21°C° 0 mm 2 m/S 637 mmHg 47%
    20:00 +19°C° 0 mm 2 m/S 637 mmHg 50%
    21:00 +17°C° 0 mm 2 m/S 637 mmHg 52%
    22:00 +16°C° 0 mm 2 m/S 637 mmHg 52%
    23:00 +16°C° 0 mm 2 m/S 637 mmHg 52%

    übermorgen, 21 August, Montag

    Zeit Temperatur Niederschläge Wind Luftdruck Luftfeuchtigkeit
    00:00 +15°C° 0 mm 2 m/S 637 mmHg 52%
    01:00 +15°C° 0 mm 2 m/S 637 mmHg 53%
    02:00 +14°C° 0 mm 2 m/S 636 mmHg 55%
    03:00 +14°C° 0 mm 2 m/S 636 mmHg 56%
    04:00 +14°C° 0 mm 2 m/S 636 mmHg 58%
    05:00 +14°C° 0 mm 2 m/S 636 mmHg 59%
    06:00 +14°C° 0 mm 2 m/S 636 mmHg 61%
    07:00 +17°C° 0 mm 2 m/S 637 mmHg 54%
    08:00 +21°C° 0 mm 1 m/S 638 mmHg 47%
    09:00 +24°C° 0 mm 1 m/S 638 mmHg 40%
    10:00 +26°C° 0 mm 2 m/S 638 mmHg 37%
    11:00 +27°C° 0 mm 2 m/S 639 mmHg 33%
    12:00 +29°C° 0 mm 2 m/S 639 mmHg 30%
    13:00 +29°C° 0 mm 3 m/S 638 mmHg 29%
    14:00 +29°C° 0 mm 3 m/S 638 mmHg 28%
    15:00 +30°C° 0 mm 3 m/S 638 mmHg 27%
    16:00 +28°C° 0 mm 2 m/S 637 mmHg 32%
    17:00 +27°C° 0 mm 2 m/S 637 mmHg 37%
    18:00 +25°C° 0 mm 2 m/S 636 mmHg 42%
    19:00 +23°C° 0 mm 2 m/S 636 mmHg 49%
    20:00 +20°C° 0 mm 2 m/S 636 mmHg 55%
    21:00 +18°C° 0 mm 2 m/S 636 mmHg 61%
    22:00 +17°C° 0 mm 2 m/S 636 mmHg 63%
    23:00 +17°C° 0 mm 2 m/S 636 mmHg 64%

    22 August, Dienstag

    Zeit Temperatur Niederschläge Wind Luftdruck Luftfeuchtigkeit
    00:00 +16°C° 0 mm 2 m/S 636 mmHg 66%
    01:00 +16°C° 0 mm 2 m/S 635 mmHg 67%
    02:00 +16°C° 0 mm 2 m/S 635 mmHg 67%
    03:00 +15°C° 0 mm 1 m/S 635 mmHg 68%
    04:00 +16°C° 0 mm 1 m/S 635 mmHg 66%
    05:00 +16°C° 0 mm 1 m/S 635 mmHg 64%
    06:00 +16°C° 0 mm 1 m/S 635 mmHg 63%
    07:00 +20°C° 0 mm 1 m/S 636 mmHg 53%
    08:00 +23°C° 0 mm 2 m/S 637 mmHg 43%
    09:00 +26°C° 0 mm 2 m/S 638 mmHg 33%
    10:00 +27°C° 0 mm 2 m/S 638 mmHg 30%
    11:00 +29°C° 0 mm 2 m/S 638 mmHg 28%
    12:00 +30°C° 0 mm 3 m/S 638 mmHg 25%
    13:00 +30°C° 0 mm 3 m/S 638 mmHg 25%
    14:00 +31°C° 0 mm 3 m/S 637 mmHg 25%
    15:00 +31°C° 0 mm 3 m/S 637 mmHg 24%
    16:00 +29°C° 0 mm 3 m/S 637 mmHg 30%
    17:00 +28°C° 0 mm 2 m/S 636 mmHg 35%
    18:00 +26°C° 0 mm 2 m/S 636 mmHg 40%
    19:00 +24°C° 0 mm 2 m/S 636 mmHg 45%
    20:00 +21°C° 0 mm 2 m/S 636 mmHg 50%
    21:00 +19°C° 0 mm 2 m/S 635 mmHg 55%
    22:00 +18°C° 0 mm 2 m/S 635 mmHg 56%
    23:00 +17°C° 0 mm 2 m/S 635 mmHg 57%

    23 August, Mittwoch

    Zeit Temperatur Niederschläge Wind Luftdruck Luftfeuchtigkeit
    00:00 +17°C° 0 mm 2 m/S 635 mmHg 58%
    01:00 +16°C° 0 mm 2 m/S 635 mmHg 59%
    02:00 +16°C° 0 mm 2 m/S 635 mmHg 60%
    03:00 +15°C° 0 mm 2 m/S 635 mmHg 61%
    04:00 +15°C° 0 mm 2 m/S 635 mmHg 61%
    05:00 +15°C° 0 mm 2 m/S 636 mmHg 61%
    06:00 +15°C° 0 mm 2 m/S 636 mmHg 62%
    07:00 +18°C° 0 mm 2 m/S 637 mmHg 55%
    08:00 +21°C° 0 mm 2 m/S 637 mmHg 48%
    09:00 +25°C° 0 mm 2 m/S 638 mmHg 41%
    10:00 +26°C° 0 mm 2 m/S 638 mmHg 38%
    11:00 +28°C° 0 mm 3 m/S 638 mmHg 35%
    12:00 +29°C° 0 mm 3 m/S 638 mmHg 32%
    13:00 +29°C° 0 mm 3 m/S 638 mmHg 31%
    14:00 +30°C° 0 mm 3 m/S 638 mmHg 30%
    15:00 +30°C° 0 mm 3 m/S 638 mmHg 30%
    16:00 +28°C° 0 mm 3 m/S 638 mmHg 34%
    17:00 +27°C° 0 mm 3 m/S 638 mmHg 39%
    18:00 +25°C° 0 mm 3 m/S 637 mmHg 43%
    19:00 +22°C° 0 mm 3 m/S 637 mmHg 45%
    20:00 +20°C° 0 mm 3 m/S 637 mmHg 47%
    21:00 +18°C° 0 mm 3 m/S 637 mmHg 49%
    22:00 +17°C° 0 mm 2 m/S 637 mmHg 48%
    23:00 +17°C° 0 mm 2 m/S 637 mmHg 48%

    24 August, Donnerstag

    Zeit Temperatur Niederschläge Wind Luftdruck Luftfeuchtigkeit
    00:00 +16°C° 0 mm 2 m/S 637 mmHg 48%
    01:00 +16°C° 0 mm 2 m/S 637 mmHg 49%
    02:00 +15°C° 0 mm 2 m/S 637 mmHg 50%
    03:00 +15°C° 0 mm 2 m/S 637 mmHg 50%
    04:00 +15°C° 0 mm 2 m/S 637 mmHg 52%
    05:00 +15°C° 0 mm 2 m/S 638 mmHg 53%
    06:00 +15°C° 0 mm 2 m/S 638 mmHg 54%
    07:00 +18°C° 0 mm 2 m/S 638 mmHg 49%
    08:00 +20°C° 0 mm 2 m/S 639 mmHg 45%
    09:00 +24°C° 0 mm 2 m/S 640 mmHg 40%
    10:00 +26°C° 0 mm 2 m/S 640 mmHg 36%
    11:00 +27°C° 0 mm 2 m/S 640 mmHg 33%
    12:00 +29°C° 0 mm 3 m/S 640 mmHg 30%
    13:00 +29°C° 0 mm 3 m/S 640 mmHg 29%
    14:00 +30°C° 0 mm 3 m/S 640 mmHg 29%
    15:00 +30°C° 0 mm 3 m/S 640 mmHg 28%
    16:00 +28°C° 0 mm 3 m/S 639 mmHg 32%
    17:00 +27°C° 0 mm 3 m/S 639 mmHg 35%
    18:00 +25°C° 0 mm 2 m/S 638 mmHg 39%
    19:00 +23°C° 0 mm 2 m/S 638 mmHg 41%
    20:00 +20°C° 0 mm 2 m/S 638 mmHg 43%
    21:00 +18°C° 0 mm 2 m/S 638 mmHg 45%
    22:00 +17°C° 0 mm 2 m/S 638 mmHg 45%
    23:00 +17°C° 0 mm 2 m/S 638 mmHg 44%
    Mehr zeigen